Flag for Canada Weather past 2 weeks in Steinbach, Manitoba, Canada

Now
51 °F

Cool.


Feels Like: 49 °F
Forecast: 48 / 63 °F
Wind: 6 mph from Southwest

Location: Winnipeg The Forks

Current Time: Oct 23, 2014 at 6:45:04 AM

Latest Report: Oct 23, 2014 at 6:00 AM


Visibility: N/A

Pressure: 29.75 "Hg

Humidity: 82%

Dew point: 45 °F

Location of SteinbachLocation

Historic Weather in Steinbach — Graph

°F

Steinbach temperature yesterday

Maximum temperature yesterday: 63 °F (at 4:00 PM)
Minimum temperature yesterday: 53 °F (at 12:00 AM)
Average temperature yesterday: 57 °F

Past Weeks' High & Low Weather Summary

 TemperatureHumidityPressure
High68 °F (Oct 15, 3:00 PM)92% (Oct 8, 5:00 AM)30.30 "Hg (Oct 8, 5:00 AM)
Low33 °F (Oct 9, 4:00 AM)31% (Oct 15, 3:00 PM)29.47 "Hg (Oct 16, 12:00 PM)
Average48 °F66%29.92 "Hg
* Reported Oct 8 5:00 AM — Oct 23 5:00 AM, Steinbach, Weather by CustomWeather, © 2014

Note: Actual official high and low records may vary slightly from our data, if they occured in-between our weather recording intervals... More about our weather records

Advertising

Steinbach weather history for previous 24 hours

 ConditionsComfort  
Time TempWeatherWind HumidityBarometerVisibility
5:00 AM
Oct 23
52 °FCool.7 mph81%29.75 "HgN/A
4:00 AM53 °FCool.6 mph81%29.74 "HgN/A
3:00 AM52 °FCool.5 mph83%29.74 "HgN/A
2:00 AM52 °FCool.2 mph81%29.73 "HgN/A
1:00 AM52 °FCool.6 mph81%29.74 "HgN/A
12:00 AM52 °FCool.6 mph88%29.75 "HgN/A
11:00 PM
Oct 22
53 °FCool.6 mph88%29.75 "HgN/A
10:00 PM54 °FCool.6 mph87%29.75 "HgN/A
9:00 PM55 °FCool.5 mph88%29.75 "HgN/A
8:00 PM55 °FCool.5 mph89%29.75 "HgN/A
7:00 PM56 °FCool.7 mph86%29.75 "HgN/A
6:00 PM61 °FCool.8 mph63%29.72 "HgN/A
5:00 PM62 °FRefreshingly cool.7 mph58%29.72 "HgN/A
4:00 PM63 °FMild.7 mph54%29.71 "HgN/A
3:00 PM61 °FRefreshingly cool.6 mph57%29.71 "HgN/A
2:00 PM61 °FRefreshingly cool.5 mph57%29.71 "HgN/A
1:00 PM60 °FRefreshingly cool.9 mph58%29.73 "HgN/A
12:00 PM57 °FCool.7 mph65%29.73 "HgN/A
11:00 AM57 °FCool.8 mph60%29.75 "HgN/A
10:00 AM58 °FRefreshingly cool.9 mph55%29.75 "HgN/A
9:00 AM56 °FRefreshingly cool.5 mph58%29.75 "HgN/A
8:00 AM54 °FCool.2 mph62%29.73 "HgN/A
7:00 AM53 °FCool.2 mph63%29.74 "HgN/A
6:00 AM53 °FCool.3 mph63%29.75 "HgN/A
Weather by CustomWeather, © 2014

See weather overviewHow to use our weather pages